Powrót do katalogu

LEMUR-2-STAS-GORBUK

AktywnyPogodaSSO
NORAD 66686·PAYLOAD·🇺🇸 United States

Wystrzelony Nov 28, 2025 z Vandenberg Space Force Base

Loading…

Następne Przeloty (najbliższe 24 godziny)

TLE

ŚwieżeSource: Space-Track

Epoka: Sep 14, 2026, 03:32 UTC

1 66686U 25276W   26257.14775885  .00004844  00000-0  22681-3 0  9993
2 66686  97.4172 329.2081 0006292  57.7973 302.3872 15.20178141 43929

Śledź LEMUR-2-STAS-GORBUK w czasie rzeczywistym z AllMySat

Download on the App Store